Theta_e
345 352 359 360 360 361 363 363 362 362 362 363 363 363 363 363 363 363 362 362 362 362 362 361 362 360 358 359 362 360 360 360 358 360 360 359 359 358 358 357 357 352 356
349 355 360 361 361 361 360 360 362 362 362 362 363 363 363 363 363 363 363 363 363 364 361 361 360 358 359 361 361 361 359 362 361 359 358 361 360 359 359 359 357 352 357
351 355 356 361 361 359 359 358 358 361 363 362 363 364 363 363 363 363 363 363 363 364 361 361 359 359 357 357 358 357 358 360 358 359 358 351 353 359 359 359 359 358 358
352 353 355 362 361 361 359 358 358 357 360 361 362 363 363 363 363 363 363 362 363 364 361 360 359 358 358 357 359 359 359 358 358 357 350 351 352 358 358 358 358 358 359
351 352 354 360 362 361 361 361 358 359 358 359 360 362 362 363 363 362 363 363 363 362 361 360 359 358 357 357 356 357 358 357 358 353 349 348 345 354 357 356 357 358 357
349 351 357 361 362 360 361 361 359 359 360 358 360 361 361 361 363 363 363 363 362 361 361 360 359 358 357 358 358 359 359 358 357 350 349 353 347 356 358 355 355 356 354
349 353 354 362 362 360 360 360 360 358 360 359 360 360 359 361 362 362 362 362 360 359 360 360 360 358 362 362 359 358 358 358 349 349 348 350 351 356 353 354 354 353 353
351 353 355 360 361 360 360 360 360 360 359 360 359 359 360 361 362 362 362 361 361 360 359 359 358 361 363 363 358 356 357 356 351 347 349 347 356 354 353 353 352 353 356
353 352 353 353 358 360 360 359 359 359 359 359 359 359 361 361 362 361 362 362 362 360 359 359 358 359 362 364 357 358 357 356 345 348 349 348 359 353 354 352 352 352 352
350 350 352 351 353 351 353 359 359 360 360 359 359 359 360 361 361 361 361 364 362 360 359 358 358 358 360 362 363 358 356 354 346 346 346 351 356 354 357 355 352 351 351
349 348 349 349 350 351 351 355 358 359 360 360 359 358 356 350 351 353 361 362 361 359 358 358 358 358 358 359 361 359 357 347 347 346 345 355 356 354 355 354 353 352 352
344 346 348 347 348 350 355 351 350 352 351 350 350 349 347 347 349 354 359 361 360 359 357 358 357 356 354 349 353 355 345 348 348 346 345 356 356 351 350 350 350 350 349
344 348 348 346 349 349 349 348 348 347 347 347 347 346 346 346 349 350 349 349 349 353 344 346 346 349 350 348 349 344 345 346 347 348 348 357 357 356 352 351 350 349 348
342 346 347 347 348 347 349 347 347 347 348 345 346 345 344 343 344 345 346 346 345 342 339 336 336 338 345 347 347 346 343 345 345 347 347 354 356 354 352 354 352 351 352
342 345 345 347 347 347 348 347 346 347 348 345 345 346 344 342 342 343 345 345 343 338 337 337 334 340 336 338 345 346 342 344 345 348 345 354 356 354 353 352 351 352 351
342 343 345 345 347 347 345 346 346 346 346 346 346 346 343 340 340 342 342 343 342 340 343 343 341 339 336 336 341 342 343 344 346 347 347 346 355 355 356 355 353 353 353
343 344 343 343 347 346 345 346 345 345 347 345 347 346 342 340 340 343 342 342 343 344 344 344 344 341 335 334 337 340 342 343 344 345 346 346 348 356 356 356 355 356 355
344 343 343 346 345 344 343 346 346 346 346 345 348 349 346 345 345 343 342 340 341 345 343 344 342 338 335 333 333 334 337 340 342 341 343 345 345 349 353 359 360 359 357
344 342 344 344 344 344 347 346 346 342 342 343 347 348 349 345 346 345 343 342 343 341 343 340 338 337 338 337 336 334 333 336 339 342 340 341 341 345 344 349 357 360 358
344 343 344 343 342 343 347 344 343 335 338 340 345 347 349 348 350 347 345 344 347 342 343 341 340 341 340 337 340 339 335 336 339 339 340 342 340 339 340 341 341 345 356
343 339 342 342 340 344 344 341 339 335 338 339 341 347 349 348 351 348 347 345 348 343 341 343 341 338 336 337 333 332 334 336 336 338 339 340 340 341 340 342 341 343 345
340 339 341 342 339 342 343 343 343 342 342 342 343 347 348 349 348 349 346 345 346 343 340 343 342 336 339 337 332 330 326 329 334 336 336 339 339 340 344 344 345 345 345
338 340 341 342 339 340 345 344 342 343 343 342 342 344 348 350 349 349 348 346 347 344 342 342 344 341 336 339 338 332 324 323 329 332 331 332 336 336 339 344 346 347 347
339 342 342 342 339 341 345 342 341 339 338 341 341 343 347 351 350 349 347 347 346 345 343 342 345 340 337 336 339 340 333 331 326 326 330 331 331 330 332 338 343 345 345
342 342 344 342 340 343 343 342 339 336 337 341 343 342 345 348 349 351 349 348 345 344 341 344 345 341 343 340 339 339 337 334 334 329 326 330 331 332 332 335 340 341 341
344 342 344 342 340 345 346 342 339 337 339 343 343 342 344 346 348 350 349 347 345 343 342 342 345 343 345 345 345 341 339 336 336 331 328 328 328 333 335 336 338 338 340
Wind_Speed
4 5 12 12 13 14 13 14 13 13 13 13 13 14 13 12 12 13 13 14 14 16 16 16 17 18 18 18 18 18 18 17 17 16 15 17 16 16 15 15 14 8 13
8 8 14 13 14 14 12 12 12 12 12 12 13 13 13 12 12 12 13 14 15 16 16 16 17 18 17 17 18 18 17 15 15 16 16 17 16 15 14 15 14 11 14
11 8 9 12 14 13 13 12 11 11 12 12 11 13 12 12 11 11 12 14 14 15 16 16 17 17 17 16 16 16 15 15 16 17 15 5 7 15 15 14 15 14 15
11 6 6 11 12 14 13 13 12 10 10 10 10 12 12 11 12 12 13 13 14 15 15 14 15 15 14 13 15 14 14 14 14 12 6 5 9 14 14 15 14 14 15
8 7 8 12 12 13 11 14 12 12 12 10 9 11 12 12 13 12 12 13 14 15 15 14 14 12 9 9 9 8 12 13 13 10 6 5 5 10 12 13 14 13 13
7 6 11 12 12 12 11 11 13 10 13 12 9 11 11 12 12 12 12 12 14 14 14 14 11 9 9 12 11 12 13 13 11 5 5 7 5 13 13 14 12 14 13
6 5 8 12 13 11 9 11 10 10 11 11 11 11 10 12 12 12 10 10 13 14 13 13 11 11 11 12 14 14 12 12 5 5 5 5 5 13 13 13 12 12 12
9 6 5 11 11 11 9 10 10 10 10 12 10 11 12 12 11 11 10 10 12 13 13 11 11 11 12 11 14 13 12 11 6 5 5 4 7 12 12 12 11 11 11
7 6 5 5 8 11 10 8 9 10 9 11 12 11 12 10 11 10 9 9 11 12 12 10 10 9 7 9 13 12 11 10 4 3 5 2 10 11 11 11 10 10 9
5 5 5 4 5 5 5 10 9 9 10 11 11 12 11 10 10 8 7 8 10 11 10 8 8 7 7 9 14 12 12 10 3 3 3 1 9 9 9 9 9 8 8
5 3 4 5 5 4 3 5 8 9 10 11 11 10 7 3 4 5 7 10 9 9 8 7 8 7 6 7 13 11 10 3 3 2 1 6 7 7 9 7 8 6 5
5 4 3 5 5 4 2 4 2 3 4 3 4 5 3 4 2 2 6 8 9 8 7 5 5 5 4 3 3 7 3 3 2 2 1 4 6 6 6 6 5 4 3
6 4 5 5 5 4 4 2 1 1 2 2 5 4 3 2 1 2 2 3 4 6 4 5 4 1 1 1 2 3 4 3 2 1 1 3 5 6 5 5 4 3 2
8 6 5 5 5 3 3 3 2 2 2 2 3 4 3 1 0 2 2 2 3 3 3 3 2 4 4 5 5 5 4 3 2 1 2 5 5 5 5 4 4 3 3
9 6 6 6 5 4 4 3 2 3 2 2 4 4 3 3 2 1 1 2 2 3 3 2 3 3 2 2 6 5 5 5 4 2 2 8 7 6 5 5 5 5 4
8 8 6 6 5 6 4 5 3 2 2 2 1 4 5 3 4 3 2 1 1 1 2 1 2 3 4 2 5 6 5 4 4 4 3 3 8 8 8 7 7 7 7
10 9 9 7 6 6 6 4 2 3 3 3 3 5 5 5 5 4 3 2 2 2 2 2 2 3 3 3 2 1 1 2 3 4 3 3 4 9 9 9 9 8 9
9 11 8 8 6 6 5 4 3 4 3 3 3 4 5 5 5 4 3 2 1 1 1 2 3 2 3 2 1 1 2 3 4 5 4 3 3 4 6 10 10 10 11
13 11 9 7 7 6 4 4 4 4 3 2 3 4 5 5 5 3 3 3 2 1 2 1 2 2 2 2 2 3 2 3 4 4 5 5 5 5 3 7 9 10 12
9 8 8 6 7 6 4 4 3 3 2 1 1 3 5 3 4 4 3 2 3 2 1 2 2 2 1 1 3 2 3 4 4 4 5 4 5 6 5 5 4 4 11
7 7 8 8 6 5 2 4 2 2 1 1 1 1 3 4 3 3 3 3 2 3 1 1 1 3 3 3 3 3 2 5 5 5 4 4 5 5 5 5 3 3 4
13 10 8 8 8 5 4 1 3 2 1 1 2 2 1 1 2 3 3 3 2 2 3 2 3 1 2 2 2 2 4 5 3 3 3 4 6 3 5 6 5 6 5
13 12 12 9 9 6 6 4 3 3 2 2 0 1 3 3 3 3 3 2 2 2 3 1 2 3 1 2 3 3 2 2 3 3 3 2 3 3 4 5 5 5 6
13 11 11 9 8 6 7 5 6 5 4 3 3 2 3 4 4 3 2 2 3 2 1 1 1 2 2 3 2 2 1 3 1 5 3 3 2 3 5 3 5 5 5
13 13 12 10 8 7 7 7 5 4 2 2 2 3 3 3 4 4 5 5 4 3 1 2 1 2 2 1 2 2 2 1 0 2 3 4 3 3 4 4 3 4 5
11 11 11 10 8 8 7 7 8 8 6 4 3 3 2 2 3 5 5 4 4 3 4 2 0 3 2 2 2 3 2 2 2 2 1 2 2 4 3 3 3 4 4
Wind_Direction
180 167 157 139 131 119 116 114 114 111 109 108 108 108 108 111 109 110 113 112 108 104 99 107 103 99 106 105 101 103 100 102 101 95 93 90 85 83 82 82 82 85 84
140 159 154 145 131 121 119 113 111 114 118 116 115 113 112 111 113 112 112 108 102 100 102 99 100 106 107 100 106 105 102 98 96 88 81 83 84 89 86 86 83 82 76
139 147 144 141 130 128 126 125 123 119 123 124 120 121 118 116 111 108 106 106 104 103 101 102 104 104 106 103 100 97 96 94 94 90 84 62 79 82 83 78 75 75 75
135 133 138 139 145 134 136 134 131 132 125 123 117 122 120 119 116 114 112 112 108 106 107 105 101 100 99 107 106 98 101 99 91 86 57 44 75 82 82 74 78 75 79
120 123 142 146 144 133 145 135 136 144 137 136 132 124 128 120 124 115 114 116 111 110 110 106 101 98 103 121 127 110 100 97 93 77 66 71 68 86 88 80 76 80 82
118 128 144 150 135 134 136 136 133 136 141 140 134 132 128 126 128 117 110 116 115 114 116 112 108 102 102 104 110 114 110 106 93 71 69 85 93 89 88 85 81 78 80
135 142 142 149 140 139 134 129 134 133 132 143 141 137 134 131 124 123 117 120 116 119 118 115 103 97 113 119 115 113 113 111 86 75 72 74 93 98 95 90 87 83 82
139 130 148 143 147 139 136 133 139 129 143 135 135 139 132 130 129 132 134 130 121 119 114 113 113 101 97 121 117 115 118 117 89 80 76 79 103 95 95 95 94 94 78
135 127 127 141 151 144 148 135 138 133 138 125 130 129 127 139 138 132 137 131 124 115 118 125 123 107 87 109 126 127 123 123 94 97 96 66 94 103 105 99 94 89 83
117 115 139 134 115 118 127 145 135 141 133 134 130 131 134 145 137 131 135 125 122 114 123 131 130 113 87 83 130 130 133 127 103 87 89 134 109 118 108 112 104 102 99
129 142 152 135 123 127 132 153 143 147 144 138 135 131 113 63 78 80 118 118 121 118 123 119 121 111 96 90 141 138 125 114 113 106 87 106 108 110 102 104 103 110 110
162 176 162 140 136 149 144 95 124 154 96 92 88 97 84 67 100 105 114 122 121 122 111 96 112 122 101 73 109 125 113 139 135 135 200 139 135 127 127 124 127 137 124
164 183 172 150 148 161 119 125 91 70 85 103 108 110 100 90 35 69 46 43 56 66 42 43 51 32 237 137 147 155 146 160 158 147 213 209 193 158 151 156 164 163 160
161 187 174 155 159 170 152 162 162 135 126 150 147 153 119 96 28 57 64 48 68 66 50 32 3 316 274 216 192 181 173 167 173 185 236 214 212 195 190 198 207 217 225
164 173 181 156 165 176 170 152 177 204 176 178 155 160 146 164 152 79 26 354 21 29 16 4 312 320 24 105 165 168 183 185 191 194 209 232 229 226 225 230 242 248 253
172 166 157 172 172 173 169 176 189 220 177 178 210 175 154 147 169 190 223 287 358 119 327 304 283 20 16 19 144 171 185 191 196 209 221 252 234 240 247 250 253 260 267
171 155 164 173 175 179 185 175 177 191 178 179 184 156 155 179 191 198 231 256 293 316 308 325 48 52 58 17 59 202 166 219 223 228 229 238 264 251 253 258 261 264 269
158 163 154 181 184 175 184 195 193 175 163 169 171 155 172 193 189 184 175 125 291 329 315 23 357 48 117 130 111 257 250 237 237 240 237 240 245 255 266 266 265 269 271
168 158 158 162 177 176 184 127 117 111 118 183 152 151 165 171 174 136 174 165 157 290 24 330 22 53 349 296 219 190 249 269 253 243 244 237 245 254 257 266 274 270 273
166 152 146 153 159 157 114 88 69 70 67 42 135 143 146 179 192 140 126 151 120 49 353 324 22 18 352 307 307 286 247 256 250 247 245 243 243 248 255 260 270 281 275
154 150 153 145 164 141 127 130 131 166 176 171 260 231 149 180 190 136 138 139 106 97 93 324 44 37 359 10 7 343 295 260 265 260 259 248 248 248 251 254 258 266 283
164 171 163 164 166 176 127 130 142 150 177 172 165 189 254 219 198 144 149 145 130 136 103 7 27 52 358 45 103 64 357 332 318 271 270 255 254 263 261 253 252 259 266
170 178 182 175 173 167 140 118 78 75 81 82 232 204 216 183 206 160 144 151 137 104 138 120 360 61 35 339 39 126 18 288 324 320 313 291 273 240 266 267 263 260 263
182 178 180 169 165 155 166 145 164 169 163 204 176 183 194 196 200 188 167 195 149 118 126 164 128 79 77 16 333 51 99 169 341 336 331 326 307 257 257 278 260 269 274
175 177 181 168 160 156 163 161 153 151 175 206 173 182 193 187 197 210 179 157 146 135 201 224 104 104 84 39 15 346 13 26 130 132 300 322 319 267 263 254 262 271 288
173 175 174 177 173 163 162 164 170 172 175 174 181 187 202 190 205 218 192 169 170 167 179 194 240 166 123 107 44 17 35 40 322 355 352 305 274 307 316 326 307 304 291